Location: *
(34.8620°S, 39.3380°E)
Time: 09:59:00
(UTC+00:00)

Cosmos 1606 Rocket - Pass Details

Date: 27 July 2021
Orbit: 603 x 631 km, 82.5° (Epoch: 22 September)

Event Time Altitude Azimuth Distance (km) Brightness Sun altitude
Rises 03:33:54 0° 192° (SSW) 2,956 6.8 -9.9°
Reaches altitude 10° 03:36:11 10° 197° (SSW) 2,041 5.9 -9.4°
Maximum altitude 03:40:36 54° 273° (W) 775 3.7 -8.6°
Drops below altitude 10° 03:44:59 10° 350° (N) 2,013 6.3 -7.7°
Sets 03:47:13 0° 354° (N) 2,910 7.2 -7.3°
